[[{"header":{"parameterUnit":"m.s-1","parameterCategory":1,"la1":30.2991,"la2":30.254,"lo1":-89.0895,"lo2":-89.0444,"dy":0.0017,"dx":0.0017,"nx":28,"ny":28,"refTime":"2024-10-11T21:00:00:Z","depth":0,"parameterNumber":2,"parameterNumberName":"U-component_of_WINDS"},"data":[0,0,0,0,0,0,0,0,0,0,0,0,0,0,0,0,0,0,0,0,0,0,0,0,0,0,0,0,0,0,0,0,0,0,0,0,0,0,0,0,0,0,0,0,0,0,0,0,0,0,0,0,0,0,0,0,0,0,0.7442,0.7441,0,0.7299,0.7298,0.7296,0.7224,0.7224,0.7224,0.7224,0.7071,0.7067,0.7063,0,0,0,0,0,0,0,0,0,0,0,0,0,0.7644,0.7641,0.7442,0.744,0.7439,0.73,0.7298,0.7296,0.7224,0.7224,0.7224,0.7224,0.7072,0.7067,0.7063,0,0,0,0,0,0,0,0,0,0,0,0,0,0.7534,0.764,0.7442,0.7386,0.738,0.73,0.7298,0.7295,0.7224,0.7224,0.7224,0.7224,0.7074,0.7068,0.7062,0.7026,0,0,0.7043,0.7041,0,0,0,0,0,0,0,0,0.7541,0.7527,0.7396,0.739,0.7382,0.7279,0.7313,0.7205,0.7224,0.7283,0.7224,0.7224,0.714,0.7128,0.7101,0.7018,0.7012,0.7043,0.7039,0.7037,0.7035,0,0,0,0,0,0,0,0.7548,0.7533,0.7385,0.7394,0.7386,0.7365,0.735,0.7292,0.7213,0.7278,0.7272,0.7256,0.7136,0.7108,0.7097,0.701,0.7043,0.7038,0.7034,0.7032,0.6886,0.6886,0,0,0,0,0,0,0.7566,0.754,0.739,0.7381,0.7463,0.7362,0.7344,0.7312,0.7214,0.7199,0.7257,0.7254,0.7118,0.7105,0.7092,0.7041,0.7037,0.7031,0.7028,0.6886,0.6886,0.6886,0,0,0,0,0,0,0.7571,0.7554,0.7396,0.7459,0.7437,0.7358,0.7323,0.731,0.7281,0.7198,0.7183,0.7243,0.7117,0.71,0.7042,0.7034,0.7028,0.7023,0.6887,0.6886,0.6886,0.694,0,0,0,0,0,0,0.7577,0.7556,0.7543,0.7459,0.7434,0.7351,0.7323,0.7307,0.7272,0.7266,0.7181,0.7166,0.7116,0.7052,0.7036,0.7026,0.7018,0.6887,0.6887,0.6886,0.6939,0.6942,0.6944,0,0,0,0,0,0.7584,0.7563,0.7543,0.7525,0.7417,0.7351,0.7337,0.7281,0.7272,0.7257,0.7203,0.7169,0.7038,0.7047,0.7028,0.7016,0.6887,0.6887,0.6886,0.6937,0.6941,0.6944,0,0,0,0,0,0,0.7646,0.7551,0.7528,0.7479,0.7424,0.7339,0.7319,0.7287,0.7232,0.7229,0.716,0.7141,0.7089,0.7047,0.7058,0.6974,0.6959,0.6955,0.7004,0.7007,0.701,0.702,0.7013,0,0,0,0,0,0.7655,0.7612,0.753,0.7495,0.7468,0.7399,0.7368,0.733,0.7269,0.7245,0.7187,0.7127,0.7072,0.7037,0.6982,0.6932,0.6911,0.6915,0.6917,0.692,0.6917,0.6885,0.6885,0.6884,0.6884,0.6884,0,0,0.7671,0.7613,0.759,0.7506,0.7458,0.7412,0.7379,0.7333,0.7297,0.7237,0.7179,0.7134,0.7062,0.7008,0.6981,0.6971,0.6912,0.692,0.6922,0.6917,0.6884,0.6884,0.6884,0.6884,0.6884,0.6884,0,0,0.7677,0.763,0.7595,0.7548,0.7478,0.7431,0.7423,0.7342,0.7311,0.7252,0.7205,0.716,0.7068,0.7018,0.6981,0.6966,0.6932,0.695,0.6964,0.6934,0.6934,0.6933,0.6926,0.6924,0.6947,0.6948,0.6948,0,0.7705,0.7636,0.758,0.7536,0.7499,0.7444,0.7406,0.7362,0.7277,0.7251,0.7242,0.7123,0.7071,0.7003,0.7,0.6972,0.6958,0.6959,0.6939,0.6938,0.6936,0.6929,0.6926,0.695,0.695,0.6949,0.6949,0,0.7673,0.7626,0.7606,0.7526,0.7487,0.7446,0.7381,0.7347,0.7312,0.7266,0.7205,0.714,0.7071,0.7052,0.7017,0.6978,0.6973,0.6952,0.6935,0.694,0.6931,0.6928,0.6954,0.6953,0.6952,0.6951,0,0,0.7714,0.7604,0.7597,0.7559,0.7477,0.7438,0.7393,0.7327,0.7298,0.724,0.7199,0.7122,0.7101,0.7059,0.7017,0.6991,0.698,0.6972,0.6969,0.6974,0.693,0.6946,0.6944,0.6958,0.6957,0.6956,0.6936,0,0.7707,0.7627,0.7574,0.7513,0.7467,0.7414,0.7374,0.7318,0.7273,0.7225,0.7174,0.712,0.7098,0.7072,0.7044,0.6988,0.697,0.6989,0.6916,0.6914,0.6935,0.694,0.6956,0.694,0.6932,0.6932,0.6931,0,0.7688,0.7634,0.7569,0.749,0.7469,0.7435,0.7368,0.7324,0.7258,0.7227,0.7179,0.7137,0.7084,0.7073,0.6997,0.7011,0.6978,0.6946,0.6944,0.6934,0.6922,0.6928,0.6934,0.6931,0.6926,0.6926,0.6927,0,0.7722,0.7632,0.7582,0.7551,0.7458,0.7435,0.7395,0.7329,0.7291,0.7232,0.7207,0.7142,0.7106,0.7056,0.6996,0.6993,0.6926,0.691,0.6896,0.6897,0.6883,0.6885,0.6883,0.6865,0.6865,0.6865,0.6865,0,0.7719,0.7681,0.7596,0.7564,0.7519,0.7457,0.7413,0.7368,0.731,0.7266,0.7215,0.7175,0.71,0.7049,0.7002,0.6945,0.693,0.6901,0.6889,0.6905,0.6909,0.6881,0.688,0.6864,0.6864,0.6864,0.6864,0,0.7749,0.7691,0.7631,0.7549,0.7527,0.7497,0.7424,0.739,0.7342,0.7288,0.7271,0.7196,0.7134,0.707,0.6985,0.6953,0.6897,0.6881,0.6921,0.6913,0.6903,0.6904,0.6882,0.6875,0.6864,0.6864,0.6864,0,0.775,0.772,0.7634,0.7602,0.7564,0.7513,0.7475,0.7413,0.7374,0.7296,0.727,0.7205,0.715,0.7053,0.6988,0.6923,0.6903,0.69,0.6893,0.691,0.6901,0.6903,0.6899,0.6902,0.6903,0.6903,0.6903,0,0.7758,0.773,0.7679,0.7616,0.7573,0.752,0.7465,0.7442,0.7368,0.7327,0.7264,0.7221,0.7135,0.707,0.6997,0.6952,0.6914,0.6906,0.6899,0.6915,0.6938,0.6924,0.6926,0.6907,0.6906,0.6906,0.6906,0.6906,0.7772,0.7742,0.7676,0.762,0.7572,0.7522,0.7486,0.7434,0.7381,0.7308,0.7273,0.7209,0.7141,0.7039,0.6995,0.6942,0.6931,0.6922,0.6919,0.6917,0.6921,0.6948,0.6929,0.6928,0.6928,0.6928,0.6928,0,0.7775,0.773,0.7679,0.7605,0.756,0.7531,0.7468,0.7431,0.7377,0.7318,0.7264,0.7191,0.7127,0.7057,0.6989,0.696,0.694,0.6943,0.6944,0.6934,0.6935,0.6947,0.696,0.696,0.696,0.696,0.696,0.696,0.7771,0.7718,0.7683,0.7605,0.7559,0.7498,0.7465,0.7417,0.7369,0.729,0.7237,0.7193,0.7129,0.7055,0.6994,0.6975,0.6951,0.6959,0.6935,0.6937,0.6934,0.6932,0.6943,0.6955,0.6955,0.6937,0.6937,0.6937]},{"header":{"parameterUnit":"m.s-1","parameterCategory":1,"la1":30.2991,"la2":30.254,"lo1":-89.0895,"lo2":-89.0444,"dy":0.0017,"dx":0.0017,"nx":28,"ny":28,"refTime":"2024-10-11T21:00:00:Z","depth":0,"parameterNumber":3,"parameterNumberName":"V-component_of_WINDS"},"data":[0,0,0,0,0,0,0,0,0,0,0,0,0,0,0,0,0,0,0,0,0,0,0,0,0,0,0,0,0,0,0,0,0,0,0,0,0,0,0,0,0,0,0,0,0,0,0,0,0,0,0,0,0,0,0,0,0,0,0.0052,0.0051,0,-0.0011,-0.0012,-0.0012,-0.0056,-0.0056,-0.0057,-0.0057,-0.0124,-0.0126,-0.0127,0,0,0,0,0,0,0,0,0,0,0,0,0,0.0129,0.0128,0.0052,0.0051,0.005,-0.0011,-0.0012,-0.0012,-0.0056,-0.0056,-0.0057,-0.0057,-0.0124,-0.0125,-0.0127,0,0,0,0,0,0,0,0,0,0,0,0,0,0.0084,0.0127,0.0052,0.0021,0.0018,-0.0011,-0.0012,-0.0013,-0.0056,-0.0056,-0.0057,-0.0057,-0.0123,-0.0125,-0.0127,-0.0131,0,0,-0.0134,-0.0135,0,0,0,0,0,0,0,0,0.0086,0.0081,0.0026,0.0023,0.0019,-0.0026,-0.0009,-0.0052,-0.0056,-0.0028,-0.0057,-0.0058,-0.0091,-0.0096,-0.0107,-0.0134,-0.0137,-0.0134,-0.0136,-0.0137,-0.0137,0,0,0,0,0,0,0,0.009,0.0083,0.0027,0.0026,0.0021,0.0009,0.0002,-0.0017,-0.0056,-0.003,-0.0034,-0.004,-0.0093,-0.0105,-0.0109,-0.0138,-0.0134,-0.0136,-0.0138,-0.0138,-0.0175,-0.0174,0,0,0,0,0,0,0.0098,0.0086,0.0029,0.0025,0.0052,0.0008,0.0,-0.0011,-0.0056,-0.0063,-0.004,-0.0042,-0.0101,-0.0106,-0.0111,-0.012,-0.0137,-0.0139,-0.014,-0.0175,-0.0175,-0.0174,0,0,0,0,0,0,0.01,0.0093,0.0031,0.0055,0.0046,0.0007,-0.0005,-0.0012,-0.0023,-0.0063,-0.0071,-0.0044,-0.0101,-0.0108,-0.0126,-0.0123,-0.014,-0.0142,-0.0176,-0.0175,-0.0174,-0.0137,0,0,0,0,0,0,0.0102,0.0094,0.0094,0.0055,0.0045,0.0019,-0.0005,-0.0013,-0.0027,-0.003,-0.0069,-0.0076,-0.0102,-0.0123,-0.0128,-0.0126,-0.0143,-0.0176,-0.0175,-0.0175,-0.0139,-0.0135,-0.0132,0,0,0,0,0,0.0105,0.0107,0.0094,0.0087,0.0044,0.0019,0.0013,-0.0016,-0.0026,-0.0028,-0.0054,-0.0075,-0.0122,-0.0124,-0.0131,-0.013,-0.0176,-0.0175,-0.0175,-0.014,-0.0136,-0.0132,0,0,0,0,0,0,0.0146,0.0101,0.0086,0.0076,0.0052,0.0012,0.0009,-0.001,-0.0032,-0.0035,-0.0071,-0.008,-0.0095,-0.0114,-0.0115,-0.0137,-0.0152,-0.0153,-0.0124,-0.012,-0.0117,-0.0112,-0.0145,0,0,0,0,0,0.0154,0.0139,0.01,0.0094,0.0083,0.0048,0.0037,0.0016,-0.0011,-0.0021,-0.0048,-0.0075,-0.0096,-0.0109,-0.0131,-0.0142,-0.0152,-0.0145,-0.0141,-0.0139,-0.0139,-0.0149,-0.0146,-0.0172,-0.0172,-0.0172,0,0,0.017,0.0143,0.0136,0.0102,0.0081,0.0065,0.004,0.0025,0.0012,-0.0024,-0.0043,-0.0064,-0.0096,-0.0111,-0.0119,-0.0128,-0.0134,-0.0138,-0.0135,-0.0137,-0.0148,-0.0145,-0.0143,-0.0171,-0.0171,-0.0171,0,0,0.0191,0.017,0.0162,0.0141,0.011,0.0086,0.0084,0.0047,0.0032,0.0013,-0.0015,-0.0032,-0.0067,-0.0089,-0.0105,-0.0095,-0.0116,-0.0101,-0.0084,-0.0093,-0.0092,-0.009,-0.0088,-0.0087,-0.0101,-0.0101,-0.0101,0,0.0214,0.0191,0.016,0.0146,0.0131,0.0098,0.0088,0.0069,0.0032,0.0022,0.0013,-0.0034,-0.0057,-0.0079,-0.0077,-0.0088,-0.0093,-0.0097,-0.0089,-0.0088,-0.0087,-0.0085,-0.0084,-0.0099,-0.0099,-0.0099,-0.01,0,0.022,0.0204,0.0201,0.0166,0.0151,0.0139,0.0105,0.0093,0.0073,0.005,0.0029,-0.0001,-0.003,-0.0037,-0.0056,-0.0062,-0.0067,-0.0082,-0.0098,-0.0082,-0.0081,-0.0081,-0.0096,-0.0097,-0.0098,-0.0098,0,0,0.0266,0.0214,0.0213,0.0196,0.0158,0.0144,0.013,0.0102,0.0091,0.0066,0.0052,0.0022,0.0007,-0.0011,-0.0034,-0.0041,-0.0034,-0.0056,-0.0057,-0.0052,-0.0045,-0.0033,-0.0032,-0.0048,-0.0048,-0.0048,-0.0042,0,0.028,0.0254,0.0225,0.0209,0.0192,0.016,0.0147,0.0121,0.0099,0.008,0.0054,0.0033,0.0016,0.0005,-0.0005,-0.0032,-0.0033,-0.0033,-0.0063,-0.0064,-0.0054,-0.0031,-0.0019,-0.0012,-0.0042,-0.0042,-0.0042,0,0.0294,0.027,0.0253,0.0214,0.0206,0.0196,0.0167,0.015,0.0119,0.0103,0.0082,0.0058,0.0039,0.0025,-0.0003,-0.0003,-0.0017,-0.0033,-0.0033,-0.0038,-0.0052,-0.0036,-0.0011,-0.001,-0.0042,-0.0042,-0.0042,0,0.0327,0.0292,0.0276,0.0262,0.0218,0.0211,0.0191,0.016,0.0145,0.0119,0.0108,0.008,0.0064,0.0042,0.001,0.0003,-0.0015,-0.0031,-0.0031,-0.003,-0.0033,-0.0033,-0.0011,-0.0041,-0.0041,-0.0041,-0.0041,0,0.0346,0.0336,0.029,0.028,0.0267,0.0233,0.0221,0.0198,0.017,0.0154,0.0124,0.0109,0.0068,0.0047,0.0021,0.0001,-0.0005,-0.0021,-0.0027,-0.0018,-0.0016,-0.0028,-0.003,-0.0041,-0.0041,-0.0041,-0.0041,0,0.0382,0.0351,0.0331,0.029,0.028,0.0272,0.0236,0.0224,0.0199,0.0179,0.0172,0.0132,0.0106,0.0072,0.0035,0.0018,-0.0,-0.001,0.0011,0.0007,0.0009,0.0009,0.0023,0.0023,-0.0006,-0.0006,-0.0005,0,0.0395,0.0387,0.0345,0.0332,0.0314,0.0295,0.0278,0.0244,0.0228,0.0191,0.0183,0.0155,0.0131,0.009,0.0057,0.0028,0.0016,0.0023,0.0012,0.002,0.0015,0.0015,0.0013,0.0026,0.0027,0.0027,0.0027,0,0.0422,0.0407,0.0386,0.0359,0.0341,0.0317,0.0292,0.0283,0.0243,0.0226,0.02,0.0181,0.0143,0.0114,0.0081,0.0059,0.0035,0.0031,0.0029,0.0039,0.0051,0.0043,0.0018,0.0031,0.0031,0.003,0.003,0.003,0.0447,0.0437,0.0406,0.0382,0.036,0.0337,0.0323,0.0296,0.0274,0.0242,0.0222,0.0196,0.0162,0.0115,0.0093,0.0071,0.0062,0.006,0.0059,0.0059,0.0062,0.0055,0.0065,0.0064,0.0064,0.0064,0.0064,0,0.0471,0.0449,0.0428,0.0394,0.0375,0.0356,0.0327,0.0312,0.029,0.0261,0.0238,0.0206,0.0178,0.0142,0.0111,0.0099,0.0088,0.0092,0.0092,0.0087,0.0072,0.0076,0.0102,0.0102,0.0102,0.0102,0.0102,0.0102,0.0482,0.0464,0.0445,0.0414,0.0391,0.0367,0.0351,0.0329,0.0306,0.0272,0.0249,0.0226,0.0194,0.016,0.0132,0.0122,0.0111,0.0119,0.0106,0.0092,0.0089,0.0085,0.0089,0.0117,0.0117,0.0122,0.0122,0.0122]}]]